Location: Unspecified
(0.0000°N, 0.0000°E)
Time: 11:05:14
(UTC+00:00)

DX 1 - Visible Passes

Search period start: 15 December 2019 00:00
Search period end: 25 December 2019 00:00
Orbit: 619 x 631 km, 98.4° (Epoch: 15 December)

Date Brightness Start Highest point End Pass type
(mag) Time Alt. Az. Time Alt. Az. Time Alt. Az.
15 Dec ? 03:58:53 10° SE 04:02:37 29° ENE 04:05:23 15° NNE visible
16 Dec ? 04:17:11 10° SSE 04:21:24 54° ENE 04:24:24 18° N visible
17 Dec ? 04:35:51 10° S 04:40:10 79° WSW 04:43:24 17° NNW visible
18 Dec ? 04:54:52 10° S 04:58:57 41° WSW 05:02:25 13° NW visible
19 Dec ? 03:39:28 10° ESE 03:41:50 14° ENE 03:44:09 10° NE visible
19 Dec ? 05:14:19 10° SSW 05:17:42 23° WSW 05:21:06 10° NW visible
20 Dec ? 03:57:00 10° SE 04:00:35 26° ENE 04:03:10 15° NNE visible
21 Dec ? 04:15:12 10° SSE 04:19:22 48° ENE 04:22:10 19° N visible
22 Dec ? 04:33:48 10° SSE 04:38:08 89° WSW 04:41:10 19° NNW visible
23 Dec ? 04:52:46 10° S 04:56:54 46° WSW 05:00:11 15° NNW visible
24 Dec ? 03:37:49 10° ESE 03:39:48 13° ENE 03:41:45 10° NE visible
24 Dec ? 05:12:06 10° SSW 05:15:40 25° WSW 05:19:12 10° NW visible
